Location: Franzen
(48.6167°N, 15.3833°E)
Time: 01:07:46
(UTC+00:00)

Transit 2A - Pass Details

Date: 07 August 2021
Orbit: 594 x 964 km, 66.7° (Epoch: 27 September)

Event Time Altitude Azimuth Distance (km) Brightness Sun altitude
Rises 12:12:57 0° 324° (NW) 3,240 9.1 54.7°
Reaches altitude 10° 12:15:15 10° 323° (NW) 2,366 8.5 54.5°
Maximum altitude 12:20:45 83° 238° (WSW) 864 7.6 54.1°
Drops below altitude 10° 12:26:47 10° 150° (SSE) 2,588 9.1 53.5°
Sets 12:29:23 0° 150° (SSE) 3,566 9.6 53.3°
